TimeCDT,TemperatureF,Dew PointF,Humidity,Sea Level PressureIn,VisibilityMPH,Wind Direction,Wind SpeedMPH,Gust SpeedMPH,PrecipitationIn,Events,Conditions,WindDirDegrees,DateUTC
12:15 AM,21.2,17.6,86,30.33,10.0,Calm,Calm,-,N/A,,Clear,0,2013-04-02 05:15:00
12:35 AM,21.2,17.6,86,30.33,10.0,Calm,Calm,-,N/A,,Clear,0,2013-04-02 05:35:00
12:55 AM,19.4,17.6,93,30.33,10.0,Calm,Calm,-,N/A,,Clear,0,2013-04-02 05:55:00
1:15 AM,19.4,17.6,93,30.33,10.0,Calm,Calm,-,N/A,,Clear,0,2013-04-02 06:15:00
1:35 AM,19.4,15.8,86,30.32,10.0,Calm,Calm,-,N/A,,Clear,0,2013-04-02 06:35:00
1:55 AM,19.4,17.6,93,30.33,10.0,Calm,Calm,-,N/A,,Clear,0,2013-04-02 06:55:00
2:15 AM,19.4,15.8,86,30.33,10.0,Calm,Calm,-,N/A,,Clear,0,2013-04-02 07:15:00
2:35 AM,17.6,15.8,93,30.33,10.0,Calm,Calm,-,N/A,,Clear,0,2013-04-02 07:35:00
2:55 AM,17.6,15.8,93,30.32,10.0,Calm,Calm,-,N/A,,Clear,0,2013-04-02 07:55:00
3:15 AM,19.4,17.6,93,30.32,10.0,Calm,Calm,-,N/A,,Clear,0,2013-04-02 08:15:00
3:35 AM,17.6,15.8,93,30.32,10.0,Calm,Calm,-,N/A,,Clear,0,2013-04-02 08:35:00
3:55 AM,17.6,15.8,93,30.32,10.0,Calm,Calm,-,N/A,,Clear,0,2013-04-02 08:55:00
4:15 AM,17.6,15.8,93,30.32,10.0,Calm,Calm,-,N/A,,Clear,0,2013-04-02 09:15:00
4:35 AM,17.6,15.8,93,30.32,10.0,Calm,Calm,-,N/A,,Clear,0,2013-04-02 09:35:00
4:55 AM,17.6,17.6,100,30.33,10.0,Calm,Calm,-,N/A,,Clear,0,2013-04-02 09:55:00
5:15 AM,17.6,15.8,93,30.33,10.0,Calm,Calm,-,N/A,,Clear,0,2013-04-02 10:15:00
5:35 AM,15.8,15.8,100,30.34,10.0,Calm,Calm,-,N/A,,Clear,0,2013-04-02 10:35:00
5:55 AM,17.6,15.8,93,30.34,10.0,Calm,Calm,-,N/A,,Clear,0,2013-04-02 10:55:00
6:15 AM,17.6,15.8,93,30.35,10.0,Calm,Calm,-,N/A,,Clear,0,2013-04-02 11:15:00
6:35 AM,17.6,15.8,93,30.35,10.0,Calm,Calm,-,N/A,,Clear,0,2013-04-02 11:35:00
6:55 AM,17.6,15.8,93,30.35,10.0,Calm,Calm,-,N/A,,Clear,0,2013-04-02 11:55:00
7:15 AM,15.8,15.8,100,30.35,10.0,Calm,Calm,-,N/A,,Clear,0,2013-04-02 12:15:00
7:35 AM,17.6,15.8,93,30.36,10.0,Calm,Calm,-,N/A,,Clear,0,2013-04-02 12:35:00
7:55 AM,19.4,17.6,93,30.36,10.0,Calm,Calm,-,N/A,,Clear,0,2013-04-02 12:55:00
8:15 AM,21.2,19.4,93,30.36,10.0,Calm,Calm,-,N/A,,Clear,0,2013-04-02 13:15:00
8:35 AM,21.2,21.2,100,30.36,10.0,Calm,Calm,-,N/A,,Clear,0,2013-04-02 13:35:00
8:55 AM,26.6,21.2,80,30.36,10.0,Calm,Calm,-,N/A,,Clear,0,2013-04-02 13:55:00
9:35 AM,33.8,24.8,70,30.36,10.0,WSW,5.8,-,N/A,,Clear,250,2013-04-02 14:35:00
9:55 AM,35.6,19.4,52,30.36,10.0,West,8.1,-,N/A,,Clear,260,2013-04-02 14:55:00
10:15 AM,37.4,19.4,48,30.36,10.0,West,4.6,-,N/A,,Clear,260,2013-04-02 15:15:00
10:35 AM,37.4,17.6,45,30.37,10.0,WSW,6.9,-,N/A,,Clear,250,2013-04-02 15:35:00
10:55 AM,37.4,12.2,36,30.37,10.0,West,6.9,-,N/A,,Clear,280,2013-04-02 15:55:00
11:15 AM,39.2,12.2,33,30.37,10.0,NW,6.9,-,N/A,,Clear,320,2013-04-02 16:15:00
11:35 AM,41.0,12.2,31,30.37,10.0,NW,3.5,-,N/A,,Clear,320,2013-04-02 16:35:00
11:55 AM,41.0,12.2,31,30.36,10.0,NNW,4.6,-,N/A,,Scattered Clouds,340,2013-04-02 16:55:00
12:15 PM,41.0,10.4,29,30.36,10.0,Calm,Calm,-,N/A,,Mostly Cloudy,0,2013-04-02 17:15:00
12:35 PM,42.8,10.4,27,30.35,10.0,NNE,6.9,-,N/A,,Scattered Clouds,20,2013-04-02 17:35:00
12:55 PM,41.0,8.6,26,30.35,10.0,Calm,Calm,-,N/A,,Scattered Clouds,0,2013-04-02 17:55:00
1:15 PM,42.8,8.6,25,30.34,10.0,NW,3.5,-,N/A,,Mostly Cloudy,320,2013-04-02 18:15:00
1:35 PM,42.8,8.6,25,30.34,10.0,Calm,Calm,-,N/A,,Scattered Clouds,0,2013-04-02 18:35:00
1:55 PM,44.6,10.4,25,30.33,10.0,NW,6.9,-,N/A,,Clear,310,2013-04-02 18:55:00
2:15 PM,44.6,10.4,25,30.32,10.0,NNW,5.8,16.1,N/A,,Clear,340,2013-04-02 19:15:00
2:35 PM,44.6,10.4,25,30.32,10.0,Calm,Calm,-,N/A,,Clear,0,2013-04-02 19:35:00
2:55 PM,44.6,12.2,27,30.32,10.0,Calm,Calm,-,N/A,,Clear,0,2013-04-02 19:55:00
3:15 PM,46.4,12.2,25,30.31,10.0,NW,5.8,-,N/A,,Clear,310,2013-04-02 20:15:00
3:35 PM,46.4,12.2,25,30.31,10.0,North,4.6,-,N/A,,Clear,360,2013-04-02 20:35:00
3:55 PM,46.4,12.2,25,30.31,10.0,Calm,Calm,-,N/A,,Clear,0,2013-04-02 20:55:00
4:15 PM,46.4,12.2,25,30.30,10.0,North,5.8,-,N/A,,Clear,10,2013-04-02 21:15:00
4:35 PM,46.4,12.2,25,30.30,10.0,NW,4.6,-,N/A,,Clear,320,2013-04-02 21:35:00
4:55 PM,48.2,12.2,24,30.29,10.0,North,6.9,-,N/A,,Clear,360,2013-04-02 21:55:00
5:15 PM,48.2,12.2,24,30.29,10.0,West,5.8,-,N/A,,Clear,280,2013-04-02 22:15:00
5:35 PM,48.2,12.2,24,30.29,10.0,North,4.6,-,N/A,,Clear,10,2013-04-02 22:35:00
5:55 PM,46.4,14.0,27,30.30,10.0,North,3.5,-,N/A,,Clear,10,2013-04-02 22:55:00
6:15 PM,46.4,14.0,27,30.30,10.0,ENE,6.9,-,N/A,,Clear,70,2013-04-02 23:15:00
6:35 PM,44.6,15.8,31,30.30,10.0,ENE,9.2,-,N/A,,Clear,60,2013-04-02 23:35:00
6:55 PM,46.4,14.0,27,30.30,10.0,NE,9.2,-,N/A,,Mostly Cloudy,40,2013-04-02 23:55:00
7:15 PM,44.6,15.8,31,30.30,10.0,NE,8.1,-,N/A,,Scattered Clouds,50,2013-04-03 00:15:00
7:35 PM,42.8,17.6,36,30.30,10.0,East,9.2,-,N/A,,Clear,80,2013-04-03 00:35:00
7:55 PM,39.2,17.6,42,30.30,10.0,East,6.9,-,N/A,,Clear,80,2013-04-03 00:55:00
8:15 PM,37.4,19.4,48,30.30,10.0,ENE,8.1,-,N/A,,Clear,60,2013-04-03 01:15:00
8:35 PM,35.6,19.4,52,30.31,10.0,East,9.2,-,N/A,,Clear,80,2013-04-03 01:35:00
8:55 PM,35.6,19.4,52,30.32,10.0,East,6.9,-,N/A,,Clear,80,2013-04-03 01:55:00
9:15 PM,35.6,19.4,52,30.32,10.0,East,9.2,-,N/A,,Clear,80,2013-04-03 02:15:00
9:35 PM,35.6,21.2,56,30.33,10.0,East,9.2,-,N/A,,Clear,90,2013-04-03 02:35:00
9:55 PM,33.8,21.2,60,30.33,10.0,East,9.2,-,N/A,,Clear,90,2013-04-03 02:55:00
10:15 PM,33.8,21.2,60,30.33,10.0,East,9.2,-,N/A,,Clear,80,2013-04-03 03:15:00
10:35 PM,33.8,21.2,60,30.33,10.0,East,6.9,-,N/A,,Clear,100,2013-04-03 03:35:00
10:55 PM,33.8,21.2,60,30.34,10.0,East,5.8,-,N/A,,Clear,100,2013-04-03 03:55:00
11:15 PM,33.8,21.2,60,30.34,10.0,Calm,Calm,-,N/A,,Clear,0,2013-04-03 04:15:00
11:35 PM,32.0,21.2,64,30.34,10.0,Calm,Calm,-,N/A,,Clear,0,2013-04-03 04:35:00
11:55 PM,32.0,21.2,64,30.34,10.0,Calm,Calm,-,N/A,,Clear,0,2013-04-03 04:55:00